#timestamp,LO_Frequency,Hit,StdDev 
1457503215.3,286047003.3,N
1457503235.1,286047003.3,N
1457503236.0,286047003.3,N
1457503255.8,286047006.9,N
1457503275.7,286047008.4,N
1457503295.5,286047013.0,N
1457503315.3,286047015.6,N
1457503335.2,286047014.0,N
1457503355.9,286047012.6,N
1457503375.7,286047013.5,N
1457503395.6,286047015.0,N
1457503415.4,286047015.6,N
1457503435.2,286047015.4,N
1457503455.0,286047016.7,N
1457503455.9,286047016.7,N
1457503475.8,286047016.6,N
1457503495.6,286047017.9,N
1457503515.4,286047014.4,N
1457503535.3,286047015.0,N
1457503555.1,286047017.9,N
1457503575.8,286047016.8,N
1457503595.7,286047015.0,N
1457503615.5,286047013.7,N
1457503635.3,286047011.2,N
1457503655.2,286047011.8,N
1457503675.9,286047012.1,N
1457503695.7,286047012.0,N
1457503715.6,286047012.4,N
1457503735.4,286047013.7,N
1457503755.2,286047009.7,N
1457503775.0,286047008.5,N
1457503776.0,286047008.5,N
1457503795.8,286047008.9,N
1457503815.6,286047007.8,N
1457503835.4,286047008.4,N
1457503855.3,286047008.2,N
1457503875.1,286047006.1,N
1457503895.8,286047008.4,N
1457503915.7,286047008.8,N
1457503935.5,286047010.4,Y
1457503955.3,286046997.8,P
1457503975.2,286046996.0,N
1457503995.0,286046994.0,N
1457503995.9,286046994.0,N
1457504015.7,286046996.9,N
1457504035.6,286046998.3,N
1457504055.4,286046996.9,N
1457504075.2,286046998.0,N
1457504095.1,286046992.4,N
1457504096.0,286046992.4,N
1457504115.8,286046994.0,N
1457504135.6,286046998.0,N
1457504155.5,286046993.8,N
1457504175.3,286046993.8,N
1457504195.1,286046992.4,N
1457504215.9,286046989.1,N
1457504235.7,286046991.5,N
1457504255.5,286046987.8,N
1457504275.3,286046986.0,N
1457504295.2,286046985.6,N
1457504315.0,286046988.1,N
1457504315.9,286046988.1,N
1457504335.7,286046988.4,N
1457504355.6,286046987.4,N
1457504375.4,286046986.6,N
1457504395.2,286046985.5,N
1457504415.1,286046989.7,N
1457504416.0,286046989.7,N
1457504435.8,286046987.7,N
1457504455.6,286046987.6,N
1457504475.5,286046987.4,Y
1457504495.3,286046995.2,P
1457504515.1,286046994.6,P
1457504535.9,286046993.3,P
1457504555.7,286046995.8,Y
1457504575.5,286047002.3,P
1457504595.4,286047000.8,N
1457504615.2,286046999.1,N
1457504635.0,286046999.8,N
1457504635.9,286046999.8,N
1457504655.8,286047000.5,N
1457504675.6,286047001.2,N
1457504695.4,286047002.1,N
1457504715.2,286047003.7,N
1457504735.1,286047005.4,N
1457504736.0,286047005.4,N
1457504755.8,286047006.1,N
1457504775.6,286047007.0,N
1457504795.5,286047004.8,N
1457504815.3,286047007.1,N
1457504835.1,286047008.7,N
1457504855.9,286047005.7,N
1457504875.7,286047005.8,N
1457504895.5,286047001.6,N
1457504915.4,286047004.4,N
1457504935.2,286047002.1,N
1457504955.0,286047002.0,N
1457504955.9,286047002.0,N
1457504975.8,286047000.1,N
1457504995.6,286046998.4,N
1457505015.4,286046999.9,N
1457505035.2,286047000.5,N
1457505055.1,286047000.8,N
1457505056.0,286047000.8,N
1457505075.8,286046998.1,N
1457505095.6,286046997.7,N
1457505115.5,286046999.2,N
1457505135.3,286046996.9,N
1457505155.1,286046995.4,N
1457505175.9,286046995.7,N
1457505195.7,286046993.3,N
1457505215.5,286046996.6,N
1457505235.4,286046995.6,N
1457505255.2,286046996.1,N
1457505275.0,286046994.9,N
1457505275.9,286046994.9,N
1457505295.8,286046995.9,N
1457505315.6,286046994.6,N
1457505335.4,286046993.8,N
1457505355.3,286046992.1,N
1457505375.1,286046997.6,N
1457505376.0,286046997.6,N
1457505395.8,286046994.9,N
1457505415.7,286046995.0,N
1457505435.5,286046991.7,N
1457505455.3,286046993.3,N
1457505475.1,286046995.2,N
1457505495.9,286046997.0,N
1457505515.7,286046999.3,N
1457505535.5,286046994.9,N
1457505555.4,286046995.5,N
1457505575.2,286046997.1,N
1457505595.0,286046997.1,N
1457505595.9,286046997.1,N
1457505615.8,286046996.9,N
1457505635.6,286046993.5,Y
1457505655.4,286047001.2,P
1457505675.3,286046998.4,N
1457505695.1,286046996.5,N
1457505715.8,286046995.4,N
1457505735.7,286046997.9,N
1457505755.5,286046996.6,N
1457505775.3,286046997.4,N
1457505795.2,286046993.7,Y
1457505815.9,286047000.9,P
1457505835.7,286047002.4,N
1457505855.6,286046999.9,N
1457505875.4,286047001.2,N
1457505895.2,286046997.1,N
1457505915.1,286046993.3,Y
1457505916.0,286046993.3,P
1457505935.8,286046996.0,N
1457505955.6,286046991.8,P
1457505975.5,286046996.0,N
1457505995.3,286046997.2,N
1457506015.1,286046993.6,N
1457506035.9,286046994.2,N
1457506055.7,286046991.0,Y
1457506075.5,286046994.9,P
1457506095.4,286046996.8,P
1457506115.2,286046996.5,P
1457506135.0,286046996.2,Y
1457506135.9,286046996.2,P
1457506155.8,286047000.6,P
1457506175.6,286047002.6,N
1457506195.4,286047002.3,N
1457506215.3,286047001.6,N
1457506235.1,286047002.1,N
1457506255.8,286047004.0,N
1457506275.7,286047002.9,N
1457506295.5,286047005.0,N
1457506315.3,286047007.6,N
1457506335.2,286047001.8,N
1457506355.9,286047005.0,N
1457506375.7,286047005.8,N
1457506395.6,286047001.0,N
1457506415.4,286047000.2,N
1457506435.2,286047002.4,N
1457506455.1,286047002.0,N
1457506456.0,286047002.0,N
1457506475.8,286047006.0,N
1457506495.6,286047005.3,N
1457506515.5,286047005.1,N
1457506535.3,286047004.7,N
1457506555.1,286047003.3,N
1457506575.9,286047005.8,N
1457506595.7,286047004.4,N
1457506615.5,286047001.3,N
1457506635.3,286047001.5,N
1457506655.2,286047000.2,N
1457506675.9,286047003.3,N
1457506695.7,286047004.8,N
1457506715.6,286047010.7,Y
1457506735.4,286047007.3,P
1457506755.2,286047004.9,N
1457506775.1,286047005.7,P
1457506776.0,286047005.7,Y
1457506795.8,286046998.2,P
